This is the latest recevied weather packets stored in our database for station/object KD2SIG. If no packets are shown the sender has not sent any weather packets the latest 10 day(s).
| Time | Temp. | Humidity | Pressure | Rain* | Wind** | Luminosity | Snow |
|---|---|---|---|---|---|---|---|
| 1778034946 | 7.78° C | 95% | 1011.1 hPa | 1.27 mm | - | 0 W/m² | - |
| 1778034644 | 7.78° C | 95% | 1011 hPa | 3.05 mm | - | 0 W/m² | - |
| 1778034341 | 7.78° C | 95% | 1010.9 hPa | 1.78 mm | - | 0 W/m² | - |
| 1778034039 | 7.78° C | 95% | 1011 hPa | 1.27 mm | - | 0 W/m² | - |
| 1778033736 | 7.78° C | 95% | 1011 hPa | 1.27 mm | - | 0 W/m² | - |
| 1778033433 | 7.78° C | 95% | 1011 hPa | 1.78 mm | - | 0 W/m² | - |
| 1778033131 | 7.78° C | 95% | 1011 hPa | 3.05 mm | - | 0 W/m² | - |
| 1778032828 | 7.78° C | 95% | 1011.1 hPa | 3.05 mm | - | 0 W/m² | - |
| 1778032525 | 7.78° C | 95% | 1011 hPa | 3.05 mm | - | 0 W/m² | - |
| 1778032222 | 8.33° C | 95% | 1010.8 hPa | 3.05 mm | - | 0 W/m² | - |
| 1778031920 | 8.33° C | 95% | 1010.5 hPa | 3.05 mm | - | 0 W/m² | - |
| 1778031615 | 8.33° C | 95% | 1010.7 hPa | 1.78 mm | - | 0 W/m² | - |
| 1778031313 | 8.33° C | 94% | 1010.4 hPa | 3.05 mm | - | 0 W/m² | - |
| 1778031010 | 8.33° C | 94% | 1010.5 hPa | 3.56 mm | - | 0 W/m² | - |
| 1778030706 | 8.33° C | 94% | 1010.3 hPa | 3.05 mm | - | 0 W/m² | - |
| 1778030403 | 8.33° C | 94% | 1010 hPa | 3.05 mm | - | 0 W/m² | - |
| 1778030101 | 8.33° C | 94% | 1010.4 hPa | 3.05 mm | - | 0 W/m² | - |
| 1778029797 | 8.33° C | 94% | 1010.3 hPa | 3.05 mm | - | 0 W/m² | - |
| 1778029496 | 8.89° C | 94% | 1010.2 hPa | 3.05 mm | - | 0 W/m² | - |
| 1778029191 | 8.89° C | 93% | 1010.4 hPa | 3.05 mm | - | 0 W/m² | - |
| 1778028890 | 8.89° C | 93% | 1010.3 hPa | 1.78 mm | - | 0 W/m² | - |
| 1778028584 | 8.89° C | 93% | 1010.2 hPa | 1.27 mm | - | 0 W/m² | - |
| 1778028283 | 8.89° C | 93% | 1010.1 hPa | 3.05 mm | - | 0 W/m² | - |
| 1778027979 | 8.89° C | 93% | 1010.3 hPa | 3.05 mm | - | 0 W/m² | - |
| 1778027676 | 8.89° C | 92% | 1010.5 hPa | 3.05 mm | - | 0 W/m² | - |
* Rain latest hour (hover to see other rain measurements)
** Current wind speed in m/s (hover to see current wind gust speed)